Voltar ao catálogo

STARLINK-37968

AtivoComunicaçõesSSO
NORAD 69686·PAYLOAD·🇺🇸 United States

Lançado Jun 25, 2026 de Vandenberg Space Force Base

Loading…

Próximas Passagens (próximas 24 horas)

TLE

AtualizadoSource: CelesTrak SupGP

Época: Sep 14, 2026, 23:17 UTC

1 69686C 26145K   26257.97062500  .00088257  00000+0  27403-2 0  2578
2 69686  97.2844 104.7044 0001934  92.6819 326.6350 15.33386313    15

Acompanhe STARLINK-37968 em tempo real com AllMySat

Download on the App Store